Weather in Yurovka

Russia / Krasnodar Krai     45°06′50″N   37°24′47″E
temp.,
°C
wind,
m/s
gust,
m/s
humid.,
%
clouds,
%
prec.,
mm/h
press.,
hPa
HPBL,
m
11 may, tue
tue1100:00+11wsw81258100 0.1 1018604
03:00+11wsw91467100 0.2 1016754
06:00+10w81277100 0.7 10151182
09:00+9wsw91386100 3.3 10141029
12:00+10wsw91296100 3.0 1013881
15:00+10w3697100 10.3 1014608
18:00+9ene1396100 6.1 1014258
21:00+9ne119458 6.7 101526
12 may, wed
wed1200:00+8ese1190100 0.1 101510
03:00+9ese1191100 0.2 101412
06:00+9ese129599 0.3 101481
09:00+10s61288100 1.3 1014598
12:00+12s497782 0.1 1015773
15:00+16ssw455825 0.1 1014984
18:00+15sw216247 0.0 1014293
21:00+10nne11825 0.0 101411
13 may, thu
thu1300:00+9ne22870 0.0 101316
03:00+9ene32910 0.0 101228
06:00+10ene349370 0.0 101264
09:00+17ene46715 0.0 1012301
12:00+23e445183 0.0 1011693
15:00+23e5556100 0.0 1011642
18:00+21e510745 0.0 1010427
21:00+17ese348877 0.0 101038
14 may, fri
fri1400:00+16sse228641 0.0 100911
03:00+15ssw22850 0.0 101011
06:00+15ese11715 0.0 101111
09:00+23ne225533 0.0 1011273
12:00+27s3643100 0.0 1010867
15:00+28sw2441100 0.0 1010848
18:00+23nnw33680 0.0 1010169
21:00+16nw117517 0.1 101111
15 may, sat
sat1500:00+17wsw4776100 0.3 1012195
03:00+14ssw33821 0.4 101336
06:00+14ssw1185100 0.0 101418
09:00+19w236394 0.0 1015456
12:00+21wsw445959 0.0 1016867
15:00+22sw4358100 0.0 1014717
18:00
21:00+14s1183100 0.0 101611